Vorticity
nan nan nan nan nan nan nan nan nan nan nan nan nan nan nan nan nan nan nan nan nan nan nan nan nan nan nan nan nan nan nan nan nan nan nan nan nan nan nan nan nan nan nan nan
nan 9 9 8 8 4 6 7 7 10 12 5 5 14 9 6 6 5 6 5 6 7 7 7 8 8 7 7 7 8 9 10 11 9 9 11 16 13 11 11 12 10 11 nan
nan 4 10 9 4 8 9 8 11 8 7 8 15 14 5 -3 4 5 7 6 4 6 7 7 7 8 8 9 9 8 9 10 10 9 11 7 16 14 10 9 12 13 12 nan
nan 12 6 7 8 7 7 7 9 9 10 10 5 10 2 -1 -2 3 5 6 6 7 8 7 6 8 9 9 9 8 8 12 10 11 10 12 10 11 12 11 9 11 14 nan
nan 12 12 8 6 11 7 6 6 7 7 11 6 6 2 3 2 3 5 5 7 7 6 8 8 9 9 9 9 10 10 10 10 11 10 10 10 11 12 14 13 11 14 nan
nan 6 9 9 10 7 5 10 12 12 9 9 18 8 3 9 8 5 7 6 6 8 8 8 8 9 10 9 8 8 10 10 11 10 11 10 11 12 11 11 15 13 12 nan
nan 9 6 9 10 12 9 6 12 13 14 6 9 12 13 11 10 7 6 7 7 7 8 6 7 9 8 7 10 9 9 11 11 10 11 12 13 17 15 14 11 11 13 nan
nan 12 18 9 5 11 13 8 8 7 7 9 12 11 8 5 5 3 5 5 7 9 7 8 8 7 8 7 9 8 9 12 10 10 12 13 15 15 12 14 14 13 15 nan
nan 13 16 9 7 6 8 9 7 8 8 12 10 6 4 2 2 2 6 7 9 9 8 7 8 8 9 8 9 10 10 10 10 11 12 11 10 10 11 16 18 16 12 nan
nan 19 8 5 4 11 10 7 9 11 13 7 9 6 -0 1 6 9 9 6 7 9 9 9 9 10 11 9 9 8 10 11 11 12 11 10 10 10 12 15 11 14 9 nan
nan 11 8 7 8 10 10 9 10 13 11 9 7 7 8 8 8 8 10 9 8 8 8 11 10 10 9 9 10 9 8 10 10 10 10 11 11 12 13 11 10 12 13 nan
nan 9 14 9 11 7 9 14 10 9 8 10 12 7 9 8 7 9 10 7 7 9 9 10 11 8 8 11 10 9 9 10 10 10 9 10 11 13 14 7 9 13 12 nan
nan 6 12 10 10 12 11 10 10 7 11 9 8 10 4 5 7 9 8 8 7 6 8 10 11 9 8 9 10 11 10 8 9 11 12 11 9 11 13 7 12 11 10 nan
nan 14 12 8 7 9 12 6 8 10 9 12 10 10 5 8 7 9 9 10 10 6 6 10 11 8 8 9 9 10 11 10 10 11 11 10 11 11 12 10 10 11 9 nan
nan 11 8 11 10 9 11 9 7 9 10 13 12 9 10 11 12 13 11 9 9 8 7 10 10 9 8 9 9 9 9 10 12 11 10 12 13 12 9 11 10 12 9 nan
nan 11 14 11 12 11 9 11 9 9 10 11 8 7 10 12 12 8 12 13 10 9 7 9 10 8 8 10 10 9 9 9 11 11 11 11 10 12 11 11 11 11 12 nan
nan 7 11 16 11 -0 8 12 9 10 9 11 13 8 7 10 14 8 8 10 10 9 8 9 10 9 8 9 10 9 10 10 9 10 10 10 10 11 13 11 10 9 11 nan
nan 8 9 14 7 6 8 12 13 8 3 8 13 10 10 13 9 8 9 12 9 8 8 11 11 8 8 10 10 10 10 10 10 10 9 10 11 12 11 9 8 10 12 nan
nan 11 11 8 7 13 15 12 7 9 10 11 7 6 11 14 2 2 12 12 8 8 8 10 10 8 8 10 10 11 10 10 10 9 9 10 10 9 8 10 12 11 10 nan
nan 10 11 10 13 7 13 18 8 6 12 13 11 11 8 12 10 3 12 9 8 8 8 9 10 9 9 10 10 10 9 9 9 10 9 10 10 10 11 10 10 11 9 nan
nan 10 8 9 11 13 17 9 8 10 13 10 10 8 13 13 11 13 11 7 8 6 7 10 10 9 10 11 11 9 10 9 11 9 10 11 12 8 8 9 8 11 10 nan
nan 9 11 11 12 13 11 11 12 10 13 9 9 10 10 11 10 12 8 7 7 8 8 8 9 8 9 11 10 8 9 10 12 10 10 9 10 13 10 8 10 10 9 nan
nan 12 11 12 11 10 12 17 16 15 11 9 9 10 8 10 11 12 9 7 8 8 7 7 9 9 9 9 9 9 8 12 13 12 11 10 10 12 11 10 9 9 10 nan
nan 15 12 13 15 12 9 10 12 12 12 11 10 13 11 11 10 12 11 9 9 10 9 9 7 9 10 8 9 9 9 11 12 12 12 12 10 11 14 14 11 9 10 nan
nan 9 9 10 14 6 7 9 8 9 10 10 11 11 13 13 10 11 8 11 12 11 10 11 9 9 9 8 9 9 11 11 11 12 10 12 12 10 11 13 12 10 10 nan
nan nan nan nan nan nan nan nan nan nan nan nan nan nan nan nan nan nan nan nan nan nan nan nan nan nan nan nan nan nan nan nan nan nan nan nan nan nan nan nan nan nan nan nan
CAPE
0 0 0 0 0 0 0 0 0 0 0 0 0 0 0 0 0 0 0 0 0 0 0 0 0 0 0 0 0 0 0 0 0 0 0 0 0 621 892 1056 1249 1435 1733 1818
0 0 0 0 0 0 0 0 0 0 0 0 0 0 0 0 0 0 0 0 0 0 0 0 0 0 0 0 0 0 0 0 0 0 0 0 0 366 874 969 990 1162 1490 1798
0 0 0 0 0 0 0 0 0 0 0 0 0 0 0 0 0 0 0 0 0 0 0 0 0 0 0 0 0 0 0 2 1 0 0 0 0 5 420 841 939 977 1355 1572
0 0 0 0 0 0 0 0 0 0 0 0 0 0 0 0 0 0 0 0 0 0 0 0 0 0 0 0 0 0 2 0 3 0 1 2 4 0 0 0 564 693 883 1170
0 0 0 0 0 0 0 0 0 0 0 0 0 0 0 0 0 0 0 0 0 0 0 0 0 0 0 0 1 1 3 2 2 0 3 2 3 5 0 22 651 666 723 1090
0 0 0 0 0 0 0 0 0 0 0 0 0 0 0 0 0 0 0 0 0 0 0 0 0 1 0 0 0 2 1 0 5 3 3 5 0 0 3 0 0 454 518 773
0 0 0 0 0 0 0 0 0 0 0 0 0 0 0 0 0 0 0 0 0 0 0 0 1 1 1 1 1 6 7 3 4 5 7 6 1 0 2 0 0 52 244 368
0 0 0 0 0 0 0 0 0 0 0 0 0 0 0 0 0 0 0 0 0 0 0 0 1 1 2 2 2 8 0 9 5 6 8 6 11 10 1 1 1 0 0 214
0 0 0 0 0 0 0 0 0 0 0 0 0 0 0 0 0 0 0 1 0 0 0 0 1 3 8 8 7 7 12 10 5 6 5 8 13 8 0 1 1 0 0 0
0 0 0 0 0 0 0 0 0 0 1 0 0 0 0 0 1 0 0 1 0 1 4 0 2 3 5 7 7 5 7 7 7 5 6 12 5 11 2 4 2 1 0 0
0 0 0 0 0 0 0 0 0 0 0 0 1 0 4 0 0 3 1 1 3 3 1 1 0 1 0 1 3 3 4 5 4 3 4 6 5 11 8 3 5 3 0 0
0 0 0 0 0 0 0 0 0 0 0 0 0 0 3 0 0 0 0 0 0 4 2 1 0 0 0 2 1 3 1 4 3 1 1 4 5 10 10 6 7 1 5 2
0 0 0 0 0 0 0 0 0 0 0 0 0 0 1 0 0 0 0 0 0 0 0 0 0 0 0 0 2 4 3 1 0 0 0 1 4 10 7 5 7 3 4 7
0 0 0 0 0 0 0 0 0 0 0 0 0 0 0 0 0 0 0 0 0 0 0 1 1 0 0 0 3 3 5 0 0 0 0 0 0 4 9 7 6 5 9 7
0 0 0 0 0 0 0 0 0 0 0 0 1 0 1 0 0 0 0 0 0 0 0 2 0 0 2 0 3 2 3 4 3 1 1 0 1 0 6 7 5 5 4 12
0 0 0 0 0 0 0 0 0 0 0 0 0 0 0 3 3 0 0 0 0 0 0 3 3 3 6 6 6 9 6 6 5 7 6 6 5 7 5 6 7 5 1 0
0 0 0 0 0 0 0 0 0 0 0 0 0 0 0 0 0 0 0 0 0 0 0 4 2 2 6 4 8 5 7 4 6 7 8 9 8 9 7 4 2 5 2 0
0 0 0 0 0 0 0 0 0 0 0 0 0 0 0 0 0 0 0 0 0 0 0 0 3 1 6 8 10 5 6 8 8 9 11 8 11 7 7 2 1 2 1 4
0 0 0 5 0 0 1 0 0 0 0 0 0 0 0 0 0 0 0 0 0 0 0 0 3 3 6 12 10 3 3 3 9 9 12 8 9 7 6 2 2 3 3 3
0 0 0 0 0 0 0 0 0 0 0 0 0 0 0 0 0 0 0 0 0 0 0 0 2 4 4 10 3 0 0 1 3 10 6 6 8 8 3 4 2 2 3 3
0 0 0 0 0 0 0 0 0 0 0 0 0 0 0 0 0 0 0 0 0 0 0 1 3 5 6 4 0 0 0 0 2 7 0 2 1 12 1 2 0 0 1 1
0 0 0 0 0 0 0 0 0 0 0 0 0 0 0 1 2 0 0 0 0 0 0 0 0 4 4 0 0 0 0 0 7 0 0 0 0 1 12 0 0 1 1 1
0 0 0 0 0 0 0 0 0 0 0 0 0 0 0 0 0 0 0 0 0 0 0 0 0 1 0 0 0 0 1 1 3 0 0 0 0 0 0 0 0 0 0 0
0 0 0 0 0 0 0 0 0 0 0 0 0 0 0 0 0 0 0 0 0 0 0 0 0 1 0 0 0 0 2 7 0 0 0 0 0 0 0 0 1 0 0 0
0 0 0 0 0 0 0 0 0 0 0 0 0 0 0 0 0 0 0 0 0 0 0 0 0 0 0 0 0 0 0 3 0 0 2 0 0 0 0 0 2 0 0 0
0 0 0 0 0 0 0 0 1 0 0 0 0 0 0 0 0 0 0 0 0 0 0 0 0 0 0 0 0 0 0 7 0 0 3 0 0 0 0 0 0 0 0 0